User: anonymous   Login
Location: Unspecified
(0.0000°N, 0.0000°E)
Time: 19:53:05
(UTC+00:00)
Language:

Transit 4A - Orbit

View from above orbital plane
View from above orbital plane
View from above satellite
View from above satellite

Ground track
Ground track

The orbit data is extracted from the following two-line orbital elements,

1   116U 61015A   20196.34895779 -.00000033  00000-0  33814-4 0  9991
2   116  66.8096 142.4703 0077258 344.8112  15.0647 13.91772394996045
Epoch (UTC): 14 July 2020 08:22:29
Eccentricity: 0.0077258
inclination: 66.8096°
perigee height: 866 km
apogee height: 979 km
right ascension of ascending node: 142.4703°
argument of perigee: 344.8112°
revolutions per day: 13.91772394
mean anomaly at epoch: 15.0647°
orbit number at epoch: 99604

The dashed part of the orbit path shows where the satellite is in the earth's shadow,  

DLR